Caldwell, NJ

8:59 PM EDT on September 16, 2019 (GMT -0400)
Essex County

Weather History for KCDW - May, 2019

Change the Weather History Date:

Monday, May 20, 2019

  Actual Average Record
Temperature  
Mean Temperature 77 °F -  
Max Temperature 88 °F 72 °F 98 °F (1962)
Min Temperature 66 °F 50 °F 33 °F (1983)
Cooling Degree Days 12    
Growing Degree Days 27 (Base 50)    
Moisture  
Dew Point 64 °F    
Average Humidity 79    
Maximum Humidity 100    
Minimum Humidity 37    
Precipitation  
Precipitation 0.50 in - - ()
Sea Level Pressure  
Sea Level Pressure 29.84 in    
Wind  
Wind Speed 4 mph (WSW)    
Max Wind Speed 15 mph    
Max Gust Speed 25 mph    
Visibility 7 miles    
Events Fog , Rain , Thunderstorm    
Averages and records for this station are not official NWS values.
T = Trace of Precipitation, MM = Missing Value Source: NWS Daily Summary

Daily Weather History Graph

Daily Weather History Graph

Search for Another Location

Airport or City:

Astronomy

May. 20, 2019 Rise Set
Actual Time 5:35 AM EDT 8:12 PM EDT
Civil Twilight 5:03 AM EDT 8:44 PM EDT
Nautical Twilight 4:24 AM EDT 9:23 PM EDT
Astronomical Twilight 3:39 AM EDT 10:08 PM EDT
Moon 10:11 PM EDT (5/20) 7:01 AM EDT (5/20)
Length of Visible Light 15h 40m
Length of Day
14h 37m
Waning Gibbous, 96% of the Moon is Illuminated
May 20
Waning Gibbous
May 26
Last Quarter
Jun 3
New
Jun 10
First Quarter
Jun 17
Full

Hourly Weather History & Observations

Time (EDT) Temp. Heat Index Dew Point Humidity Pressure Visibility Wind Dir Wind Speed Gust Speed Precip Events Conditions
12:10 AM 70.0 °F - 68.0 °F 93% 29.94 in 1.8 mi Variable 3.5 mph - 0.09 in Rain , Thunderstorm Heavy Thunderstorms and Rain
12:22 AM 70.0 °F - 66.9 °F 90% 29.90 in 3.0 mi South 3.5 mph - 0.14 in Rain , Thunderstorm Light Thunderstorms and Rain
12:35 AM 70.0 °F - 68.0 °F 93% 29.90 in 10.0 mi Calm Calm - 0.14 in Thunderstorm Overcast
12:42 AM 70.0 °F - 68.0 °F 93% 29.89 in 10.0 mi South 3.5 mph - 0.14 in Thunderstorm Thunderstorm
12:53 AM 70.0 °F - 68.0 °F 93% 29.96 in 9.0 mi WNW 15.0 mph 21.9 mph 0.14 in Rain , Thunderstorm Light Rain
1:01 AM 70.0 °F - 66.9 °F 90% 29.95 in 1.5 mi West 11.5 mph 23.0 mph 0.12 in Rain , Thunderstorm Heavy Rain
1:17 AM 69.1 °F - 68.0 °F 96% 29.94 in 1.8 mi South 4.6 mph - 0.30 in Rain , Thunderstorm Thunderstorms and Rain
1:24 AM 69.1 °F - 66.9 °F 93% 29.93 in 2.5 mi South 3.5 mph - 0.33 in Rain , Thunderstorm Thunderstorms and Rain
1:32 AM 69.1 °F - 66.9 °F 93% 29.92 in 8.0 mi South 3.5 mph - 0.33 in Rain , Thunderstorm Light Thunderstorms and Rain
1:41 AM 69.1 °F - 66.9 °F 93% 29.91 in 10.0 mi South 3.5 mph - 0.33 in Rain , Thunderstorm Light Rain
1:53 AM 69.1 °F - 66.9 °F 93% 29.93 in 10.0 mi SSW 3.5 mph - 0.33 in Rain , Thunderstorm Light Rain
2:05 AM 69.1 °F - 66.9 °F 93% 29.91 in 10.0 mi Calm Calm - 0.00 in   Mostly Cloudy
2:53 AM 68.0 °F - 66.9 °F 96% 29.91 in 10.0 mi West 3.5 mph - 0.00 in   Overcast
3:09 AM 68.0 °F - 66.9 °F 96% 29.90 in 7.0 mi Calm Calm - 0.01 in Rain , Thunderstorm Light Rain
3:42 AM 68.0 °F - 66.9 °F 96% 29.87 in 10.0 mi SE 3.5 mph - 0.02 in   Scattered Clouds
3:53 AM 68.0 °F - 66.9 °F 96% 29.86 in 10.0 mi Calm Calm - 0.02 in   Scattered Clouds
4:53 AM 66.9 °F - 66.0 °F 97% 29.85 in 6.0 mi Calm Calm - 0.01 in   Clear
5:15 AM 66.9 °F - 66.9 °F 100% 29.83 in 1.5 mi Calm Calm - N/A   Partly Cloudy
5:18 AM 66.9 °F - 66.0 °F 97% 29.83 in 0.8 mi Calm Calm - N/A   Mist
5:25 AM 66.9 °F - 66.0 °F 97% 29.83 in 0.5 mi Calm Calm - N/A Fog Fog
5:33 AM 66.9 °F - 66.0 °F 97% 29.83 in 1.5 mi Calm Calm - N/A   Scattered Clouds
5:36 AM 66.9 °F - 66.0 °F 97% 29.83 in 3.0 mi Calm Calm - N/A   Partly Cloudy
5:43 AM 66.9 °F - 66.9 °F 100% 29.83 in 1.8 mi Calm Calm - N/A   Partly Cloudy
5:53 AM 66.9 °F - 66.9 °F 100% 29.84 in 3.0 mi Calm Calm - N/A   Mostly Cloudy
6:53 AM 68.0 °F - 66.9 °F 96% 29.85 in 4.0 mi Calm Calm - N/A   Partly Cloudy
7:53 AM 70.0 °F - 69.1 °F 97% 29.86 in 5.0 mi WSW 3.5 mph - N/A   Clear
8:53 AM 73.0 °F - 69.1 °F 87% 29.86 in 7.0 mi Variable 5.8 mph - N/A   Mostly Cloudy
9:53 AM 75.0 °F - 69.1 °F 82% 29.85 in 9.0 mi Variable 5.8 mph - N/A   Partly Cloudy
10:53 AM 80.1 °F 82.3 °F 66.9 °F 64% 29.82 in 10.0 mi Variable 6.9 mph 20.7 mph N/A   Clear
11:53 AM 82.9 °F 84.6 °F 64.9 °F 54% 29.82 in 10.0 mi Variable 6.9 mph 18.4 mph N/A   Partly Cloudy
12:53 PM 84.9 °F 85.9 °F 63.0 °F 48% 29.80 in 10.0 mi West 10.4 mph 19.6 mph N/A   Scattered Clouds
1:53 PM 86.0 °F 86.1 °F 61.0 °F 43% 29.77 in 10.0 mi West 8.1 mph 18.4 mph N/A   Scattered Clouds
2:53 PM 86.0 °F 86.1 °F 61.0 °F 43% 29.75 in 10.0 mi WSW 11.5 mph 23.0 mph 0.00 in   Mostly Cloudy
3:53 PM 88.0 °F 87.1 °F 59.0 °F 37% 29.71 in 10.0 mi Variable 6.9 mph 23.0 mph N/A   Clear
4:53 PM 84.9 °F 85.4 °F 62.1 °F 46% 29.72 in 10.0 mi West 15.0 mph 20.7 mph 0.00 in   Scattered Clouds
5:53 PM 81.0 °F 82.2 °F 63.0 °F 54% 29.72 in 10.0 mi WNW 9.2 mph - 0.00 in Rain Light Rain
6:53 PM 82.9 °F 84.0 °F 63.0 °F 51% 29.72 in 10.0 mi West 8.1 mph - 0.00 in   Clear
7:53 PM 82.9 °F 82.0 °F 55.0 °F 38% 29.73 in 10.0 mi West 12.7 mph 19.6 mph N/A   Clear
8:53 PM 80.1 °F - 52.0 °F 38% 29.75 in 10.0 mi West 5.8 mph - N/A   Clear
9:53 PM 77.0 °F - 51.1 °F 40% 29.75 in 10.0 mi Variable 3.5 mph - N/A   Clear
10:53 PM 75.0 °F - 53.1 °F 46% 29.80 in 10.0 mi NNW 15.0 mph 25.3 mph N/A   Clear
11:53 PM 69.1 °F - 52.0 °F 54% 29.83 in 10.0 mi NW 9.2 mph - N/A   Clear